FW3090 Weather Reports


Display with metric or nautical units.
time (UTC)temp
F
wind
direction
speed
MPH
gust
MPH
rain 1hr
in
rain 24hr
in
rain mn
in
humidity
%
barometer
mb
20260507164224 54 225 2.0 6.0 0.00 0.00 0.00 45 1011.6
20260507163501 54 235 3.0 8.0 0.00 0.00 0.00 47 1011.6
20260507162955 53 338 3.0 8.0 0.00 0.00 0.00 47 1011.6
20260507162710 52 240 3.0 8.0 0.00 0.00 0.00 48 1011.6
20260507161942 52 20 3.0 8.0 0.00 0.00 0.00 48 1011.8
20260507161655 51 219 2.0 4.0 0.00 0.00 0.00 50 1011.8
20260507160930 51 286 2.0 5.0 0.00 0.00 0.00 57 1011.9
20260507160424 50 15 2.0 5.0 0.00 0.00 0.00 56 1011.9
20260507155918 51 5 2.0 7.0 0.00 0.00 0.00 55 1011.9
20260507155412 51 268 3.0 7.0 0.00 0.00 0.00 56 1012.0
20260507154907 50 221 2.0 6.0 0.00 0.00 0.00 56 1012.0
20260507154401 50 302 3.0 8.0 0.00 0.00 0.00 57 1012.0
20260507153854 49 220 4.0 8.0 0.00 0.00 0.00 56 1012.1
20260507153349 49 192 4.0 9.0 0.00 0.00 0.00 60 1012.1
20260507153102 49 209 4.0 9.0 0.00 0.00 0.00 60 1012.2
20260507152338 48 178 3.0 9.0 0.00 0.00 0.00 63 1012.2
20260507151830 47 228 3.0 9.0 0.00 0.00 0.00 60 1012.3
20260507151325 48 182 2.0 6.0 0.00 0.00 0.00 64 1012.4
20260507150818 47 237 2.0 7.0 0.00 0.00 0.00 67 1012.5
20260507150533 47 264 3.0 7.0 0.00 0.00 0.00 65 1012.6
20260507145806 47 244 3.0 7.0 0.00 0.00 0.00 66 1012.7
20260507145301 46 219 2.0 5.0 0.00 0.00 0.00 69 1012.6
20260507144755 45 223 2.0 4.0 0.00 0.00 0.00 72 1012.7
20260507144248 45 219 2.0 6.0 0.00 0.00 0.00 70 1012.8
20260507144002 45 261 2.0 7.0 0.00 0.00 0.00 72 1012.9
20260507143238 44 247 3.0 7.0 0.00 0.00 0.00 72 1013.0
20260507142956 44 246 2.0 5.0 0.00 0.00 0.00 75 1013.1
20260507142225 42 274 1.0 4.0 0.00 0.00 0.00 77 1013.1
20260507141718 41 259 1.0 4.0 0.00 0.00 0.00 77 1013.2
20260507141212 41 227 2.0 4.0 0.00 0.00 0.00 78 1013.2
20260507140933 40 222 2.0 4.0 0.00 0.00 0.00 78 1013.3
20260507140201 40 222 2.0 6.0 0.00 0.00 0.00 78 1013.2
20260507135655 40 238 2.0 6.0 0.00 0.00 0.00 78 1013.3
20260507135148 39 234 2.0 5.0 0.00 0.00 0.00 78 1013.3
20260507135126 39 226 1.0 5.0 0.00 0.00 0.00 78 1013.5
20260507134142 38 107 0.0 0.0 0.00 0.00 0.00 78 1013.5
20260507133641 38 107 0.0 0.0 0.00 0.00 0.00 78 1013.5
20260507133139 38 107 1.0 3.0 0.00 0.00 0.00 79 1013.6
20260507132902 37 107 1.0 3.0 0.00 0.00 0.00 80 1013.5
20260507132136 37 105 0.0 3.0 0.00 0.00 0.00 79 1013.6
20260507131636 37 105 1.0 3.0 0.00 0.00 0.00 80 1013.5
20260507131135 37 105 1.0 3.0 0.00 0.00 0.00 80 1013.4
20260507130634 36 95 1.0 3.0 0.00 0.00 0.00 81 1013.4
20260507130133 36 95 1.0 3.0 0.00 0.00 0.00 83 1013.4
20260507125632 35 48 1.0 3.0 0.00 0.00 0.00 83 1013.5
20260507125356 35 47 0.0 2.0 0.00 0.00 0.00 84 1013.5
20260507124629 34 47 0.0 2.0 0.00 0.00 0.00 85 1013.4
20260507124129 34 20 0.0 0.0 0.00 0.00 0.00 85 1013.3
20260507123629 33 20 0.0 0.0 0.00 0.00 0.00 85 1013.4
20260507123129 33 18 0.0 0.0 0.00 0.00 0.00 86 1013.3
20260507122628 32 18 0.0 0.0 0.00 0.00 0.00 86 1013.3
20260507122124 32 16 0.0 0.0 0.00 0.00 0.00 86 1013.4
20260507121626 32 16 0.0 0.0 0.00 0.00 0.00 86 1013.4
20260507121125 31 16 0.0 0.0 0.00 0.00 0.00 86 1013.4
20260507120625 31 16 0.0 1.0 0.00 0.00 0.00 86 1013.4
20260507120124 31 16 0.0 1.0 0.00 0.00 0.00 86 1013.3
20260507115841 30 16 0.0 2.0 0.00 0.00 0.00 86 1013.3
20260507115342 30 16 0.0 2.0 0.00 0.00 0.00 86 1013.3
20260507114625 30 15 0.0 0.0 0.00 0.00 0.00 86 1013.3
20260507114125 30 16 0.0 0.0 0.00 0.00 0.00 86 1013.2
20260507113623 29 16 0.0 0.0 0.00 0.00 0.00 86 1013.3
20260507113123 29 16 0.0 0.0 0.00 0.00 0.00 86 1013.4
20260507112847 29 0 0.0 0.0 0.00 0.00 0.00 85 1013.4
20260507112123 29 0 0.0 0.0 0.00 0.00 0.00 85 1013.3
20260507111847 29 0 0.0 0.0 0.00 0.00 0.00 85 1013.3
20260507111123 29 0 0.0 0.0 0.00 0.00 0.00 85 1013.2
20260507110623 29 0 0.0 0.0 0.00 0.00 0.00 85 1013.2
20260507110123 29 0 0.0 0.0 0.00 0.00 0.00 85 1013.1
20260507105845 29 0 0.0 0.0 0.00 0.00 0.00 84 1013.2
20260507105607 29 0 0.0 0.0 0.00 0.00 0.00 84 1013.1
20260507104841 29 0 0.0 0.0 0.00 0.00 0.00 85 1013.2
20260507104340 30 0 0.0 0.0 0.00 0.00 0.00 85 1013.2
20260507103620 30 0 0.0 0.0 0.00 0.00 0.00 84 1013.3
20260507103121 30 0 0.0 1.0 0.00 0.00 0.00 85 1013.3
20260507102620 30 0 0.0 1.0 0.00 0.00 0.00 85 1013.3
20260507102120 30 0 0.0 0.0 0.00 0.00 0.00 85 1013.3
20260507101620 30 0 0.0 0.0 0.00 0.00 0.00 85 1013.3
20260507101120 30 0 0.0 1.0 0.00 0.00 0.00 84 1013.3
20260507100618 30 0 0.0 2.0 0.00 0.00 0.00 84 1013.2
20260507100116 30 0 0.0 2.0 0.00 0.00 0.00 84 1013.2
20260507095838 30 0 0.0 1.0 0.00 0.00 0.00 85 1013.4
20260507095116 30 0 1.0 2.0 0.00 0.00 0.00 85 1013.4
20260507094614 30 0 1.0 2.0 0.00 0.00 0.00 84 1013.3
20260507094113 30 0 1.0 2.0 0.00 0.00 0.00 84 1013.4
20260507093613 30 0 1.0 2.0 0.00 0.00 0.00 84 1013.4
20260507093112 31 0 1.0 2.0 0.00 0.00 0.00 84 1013.5
20260507092611 31 0 1.0 2.0 0.00 0.00 0.00 84 1013.5
20260507092332 31 0 1.0 2.0 0.00 0.00 0.00 84 1013.4
20260507091600 31 0 1.0 2.0 0.00 0.00 0.00 84 1013.5
20260507091053 31 0 0.0 2.0 0.00 0.00 0.00 84 1013.6
20260507090547 31 0 0.0 0.0 0.00 0.00 0.00 84 1013.6
20260507090042 31 0 0.0 0.0 0.00 0.00 0.00 84 1013.6
20260507085535 31 0 0.0 0.0 0.00 0.00 0.00 83 1013.6
20260507085029 31 0 0.0 0.0 0.00 0.00 0.00 83 1013.6
20260507084523 31 0 0.0 0.0 0.00 0.00 0.00 83 1013.7
20260507084238 31 0 0.0 0.0 0.00 0.00 0.00 83 1013.7
20260507083732 31 0 0.0 0.0 0.00 0.00 0.00 83 1013.7
20260507083006 31 0 0.0 0.0 0.00 0.00 0.00 83 1013.7
20260507082459 31 0 0.0 0.0 0.00 0.00 0.00 82 1013.8
20260507081954 31 0 0.0 0.0 0.00 0.00 0.00 82 1013.8
20260507081448 31 0 0.0 1.0 0.00 0.00 0.00 82 1013.8
20260507080941 31 0 0.0 1.0 0.00 0.00 0.00 82 1013.8
20260507080436 31 0 0.0 0.0 0.00 0.00 0.00 81 1013.8
20260507075929 32 0 0.0 0.0 0.00 0.00 0.00 82 1013.8
20260507075423 32 0 0.0 0.0 0.00 0.00 0.00 81 1013.8
20260507074918 32 0 0.0 0.0 0.00 0.00 0.00 81 1013.8
20260507074412 32 0 0.0 0.0 0.00 0.00 0.00 81 1013.8
20260507073905 32 0 0.0 0.0 0.00 0.00 0.00 81 1013.8
20260507073400 32 0 0.0 0.0 0.00 0.00 0.00 80 1013.9
20260507072854 32 0 0.0 0.0 0.00 0.00 0.00 80 1014.0
20260507072348 32 0 0.0 0.0 0.00 0.00 0.00 79 1014.0
20260507071842 32 0 0.0 0.0 0.00 0.00 0.00 79 1014.0
20260507071335 32 0 0.0 0.0 0.00 0.00 0.00 79 1014.0
20260507070830 32 0 0.0 0.0 0.00 0.00 0.00 80 1014.0
20260507070323 32 0 0.0 0.0 0.00 0.00 0.00 80 1014.1
20260507065819 32 0 0.0 0.0 0.00 0.00 0.00 80 1014.1
20260507065529 32 0 0.0 0.0 0.00 0.00 0.00 79 1014.1
20260507065023 32 0 0.0 0.0 0.00 0.00 0.00 80 1014.1
20260507064300 32 0 0.0 0.0 0.00 0.00 0.00 80 1014.1
20260507063754 32 0 0.0 0.0 0.00 0.00 0.00 79 1014.2
20260507063248 32 0 0.0 2.0 0.00 0.00 0.00 80 1014.3
20260507062741 32 0 0.0 2.0 0.00 0.00 0.00 80 1014.3
20260507062236 32 0 0.0 1.0 0.00 0.00 0.00 80 1014.3
20260507061952 32 0 0.0 0.0 0.00 0.00 0.00 80 1014.3
20260507061441 32 0 0.0 0.0 0.00 0.00 0.00 80 1014.3
20260507060946 32 0 0.0 0.0 0.00 0.00 0.00 80 1014.3
20260507060211 32 0 0.0 0.0 0.00 0.00 0.00 79 1014.4
20260507055705 32 0 0.0 0.0 0.00 0.00 0.00 79 1014.4
20260507055201 32 0 0.0 0.0 0.00 0.00 0.00 79 1014.4
20260507054653 32 0 0.0 0.0 0.00 0.00 0.00 78 1014.5
20260507054148 32 0 0.0 0.0 0.00 0.00 0.00 78 1014.5
20260507053641 32 0 0.0 0.0 0.00 0.00 0.00 78 1014.6
20260507053352 32 0 0.0 0.0 0.00 0.00 0.00 77 1014.6
20260507052630 32 0 0.0 0.0 0.00 0.00 0.00 77 1014.7
20260507052124 32 0 0.0 0.0 0.00 0.00 0.00 78 1014.7
20260507051618 32 0 0.0 0.0 0.00 0.00 0.00 76 1014.7
20260507051111 32 0 0.0 0.0 0.00 0.00 0.00 76 1014.8
20260507050829 33 0 0.0 0.0 0.00 0.00 0.00 76 1014.7
20260507050323 33 0 0.0 0.0 0.00 0.00 0.00 75 1014.7
20260507045554 33 0 0.0 0.0 0.00 0.00 0.00 75 1014.8
20260507045047 33 0 0.0 0.0 0.00 0.00 0.00 74 1014.7
20260507044542 33 0 0.0 0.0 0.00 0.00 0.00 73 1015.0
20260507044036 33 0 0.0 0.0 0.00 0.00 0.00 74 1014.8
20260507043529 33 0 0.0 0.0 0.00 0.00 0.00 74 1014.8
20260507043025 34 0 0.0 0.0 0.00 0.00 0.00 73 1015.0
20260507042517 34 0 0.0 0.0 0.00 0.00 0.00 72 1014.7
20260507042012 34 0 0.0 0.0 0.00 0.00 0.00 71 1015.0
20260507041506 34 0 0.0 0.0 0.00 0.00 0.00 71 1015.0
20260507040959 34 0 0.0 0.0 0.00 0.00 0.00 71 1014.8
20260507040454 34 0 0.0 0.0 0.00 0.00 0.00 71 1015.0
20260507040426 35 0 0.0 0.0 0.00 0.00 0.00 71 1015.0
20260507035442 35 0 0.0 0.0 0.00 0.00 0.00 71 1015.0
20260507034935 35 0 0.0 0.0 0.00 0.00 0.00 71 1015.0
20260507034923 35 331 0.0 0.0 0.00 0.00 0.00 70 1015.3
20260507033925 35 331 0.0 0.0 0.00 0.00 0.00 70 1015.3
20260507033417 36 331 0.0 1.0 0.00 0.00 0.00 69 1015.3
20260507032912 36 331 1.0 2.0 0.00 0.00 0.00 70 1015.2
20260507032623 36 331 1.0 2.0 0.00 0.00 0.00 69 1015.3
20260507032125 37 320 0.0 0.0 0.00 0.00 0.00 68 1015.4
20260507031354 37 319 0.0 0.0 0.00 0.00 0.00 67 1015.5
20260507030848 37 319 0.0 0.0 0.00 0.00 0.00 66 1015.5
20260507030342 37 319 0.0 0.0 0.00 0.00 0.00 66 1015.6
20260507025836 38 319 0.0 0.0 0.00 0.00 0.00 66 1015.7
20260507025329 38 319 0.0 0.0 0.00 0.00 0.00 67 1015.6
20260507024824 38 319 0.0 0.0 0.00 0.00 0.00 66 1015.6
20260507024540 38 319 0.0 0.0 0.00 0.00 0.00 67 1015.6
20260507023812 38 319 0.0 0.0 0.00 0.00 0.00 66 1015.6
20260507023305 39 319 0.0 0.0 0.00 0.00 0.00 63 1015.7
20260507022800 39 319 0.0 0.0 0.00 0.00 0.00 62 1015.6
20260507022517 39 319 0.0 0.0 0.00 0.00 0.00 63 1015.5
20260507021747 40 319 0.0 0.0 0.00 0.00 0.00 62 1015.6
20260507021242 40 319 0.0 0.0 0.00 0.00 0.00 60 1015.5
20260507020735 40 319 0.0 0.0 0.00 0.00 0.00 59 1015.5
20260507020230 40 319 0.0 1.0 0.00 0.00 0.00 60 1015.5
20260507015944 41 319 0.0 1.0 0.00 0.00 0.00 60 1015.5
20260507015217 41 319 0.0 0.0 0.00 0.00 0.00 57 1015.4
20260507014712 42 319 0.0 0.0 0.00 0.00 0.00 57 1015.4
20260507014205 42 319 0.0 1.0 0.00 0.00 0.00 55 1015.3
20260507013923 42 319 0.0 2.0 0.00 0.00 0.00 56 1015.3
20260507013153 43 319 0.0 2.0 0.00 0.00 0.00 57 1015.3
20260507012648 43 319 0.0 1.0 0.00 0.00 0.00 55 1015.2
20260507012142 44 319 0.0 2.0 0.00 0.00 0.00 53 1015.2
20260507011635 44 319 1.0 3.0 0.00 0.00 0.00 51 1015.2
20260507011615 44 319 0.0 3.0 0.00 0.00 0.00 51 1015.2
20260507010623 44 320 0.0 3.0 0.00 0.00 0.00 51 1015.2
20260507010340 44 320 0.0 3.0 0.00 0.00 0.00 51 1015.2
20260507005612 44 302 1.0 3.0 0.00 0.00 0.00 51 1015.2
20260507005106 44 302 1.0 5.0 0.00 0.00 0.00 50 1015.3
20260507004559 44 289 1.0 5.0 0.00 0.00 0.00 49 1015.3
20260507004054 44 311 2.0 5.0 0.00 0.00 0.00 49 1015.4
20260507003548 44 297 2.0 6.0 0.00 0.00 0.00 50 1015.3
20260507003042 44 296 3.0 8.0 0.00 0.00 0.00 49 1015.3
20260507002535 44 333 4.0 9.0 0.00 0.00 0.00 49 1015.4
20260507002034 44 298 5.0 11.0 0.00 0.00 0.00 48 1015.3
20260507001534 44 321 5.0 11.0 0.00 0.00 0.00 47 1015.3
20260507001034 45 319 4.0 11.0 0.00 0.00 0.00 47 1015.3
20260507000534 45 340 4.0 13.0 0.00 0.00 0.00 49 1015.3
20260507000033 45 298 6.0 14.0 0.00 0.00 0.00 48 1015.3
20260506235533 45 284 5.0 14.0 0.00 0.00 0.00 47 1015.3
20260506235257 45 284 6.0 15.0 0.00 0.00 0.00 48 1015.2
20260506234533 45 327 6.0 15.0 0.00 0.00 0.00 47 1015.3
20260506234032 46 286 5.0 14.0 0.00 0.00 0.00 46 1015.3
20260506233531 46 300 4.0 9.0 0.00 0.00 0.00 47 1015.3
20260506233031 46 299 5.0 9.0 0.00 0.00 0.00 47 1015.3
20260506232531 46 302 6.0 12.0 0.00 0.00 0.00 48 1015.4
20260506232031 46 297 5.0 12.0 0.00 0.00 0.00 48 1015.3
20260506231531 45 321 5.0 10.0 0.00 0.00 0.00 48 1015.2
20260506231028 45 280 4.0 9.0 0.00 0.00 0.00 48 1015.3
20260506230528 45 302 5.0 9.0 0.00 0.00 0.00 48 1015.4
20260506230027 45 298 4.0 9.0 0.00 0.00 0.00 49 1015.4
20260506225528 45 291 5.0 9.0 0.00 0.00 0.00 49 1015.4
20260506225249 45 313 6.0 12.0 0.00 0.00 0.00 48 1015.5
20260506224527 45 298 7.0 13.0 0.00 0.00 0.00 47 1015.5
20260506224028 45 304 7.0 13.0 0.00 0.00 0.00 48 1015.5
20260506224007 45 313 7.0 12.0 0.00 0.00 0.00 48 1015.5
20260506223028 45 290 5.0 12.0 0.00 0.00 0.00 48 1015.6
20260506222527 45 296 4.0 11.0 0.00 0.00 0.00 49 1015.4
20260506222028 45 324 5.0 11.0 0.00 0.00 0.00 49 1015.4
20260506221528 45 11 6.0 11.0 0.00 0.00 0.00 48 1015.5
20260506221027 45 313 6.0 11.0 0.00 0.00 0.00 48 1015.5
20260506220752 45 296 7.0 13.0 0.00 0.00 0.00 48 1015.6
20260506220028 46 317 6.0 13.0 0.00 0.00 0.00 47 1015.6
20260506215749 46 283 5.0 10.0 0.00 0.00 0.00 50 1015.6
20260506215027 45 318 6.0 10.0 0.00 0.00 0.00 49 1015.7
20260506214526 45 298 6.0 10.0 0.00 0.00 0.00 48 1015.6
20260506214021 45 306 6.0 10.0 0.00 0.00 0.00 48 1015.6
20260506213514 45 296 5.0 8.0 0.00 0.00 0.00 48 1015.6
20260506213008 45 271 5.0 12.0 0.00 0.00 0.00 49 1015.6
20260506212503 45 277 6.0 13.0 0.00 0.00 0.00 48 1015.7
20260506212212 45 286 6.0 13.0 0.00 0.00 0.00 49 1015.7
20260506211712 45 293 7.0 13.0 0.00 0.00 0.00 49 1015.7
20260506210945 45 304 8.0 13.0 0.00 0.00 0.00 49 1015.7
20260506210438 44 277 7.0 12.0 0.00 0.00 0.00 48 1015.7
20260506205933 45 0 7.0 12.0 0.00 0.00 0.00 50 1015.8
20260506205645 44 311 7.0 12.0 0.00 0.00 0.00 47 1015.8
20260506204922 45 309 6.0 12.0 0.00 0.00 0.00 48 1015.8
20260506204415 44 306 6.0 12.0 0.00 0.00 0.00 48 1015.8
20260506204126 45 311 7.0 12.0 0.00 0.00 0.00 47 1015.9
20260506203403 45 259 7.0 12.0 0.00 0.00 0.00 47 1015.9
20260506202856 45 284 7.0 14.0 0.00 0.00 0.00 45 1015.8
20260506202351 45 315 6.0 14.0 0.00 0.00 0.00 49 1015.8
20260506201844 45 298 6.0 11.0 0.00 0.00 0.00 49 1015.9
20260506201339 45 306 7.0 13.0 0.00 0.00 0.00 46 1015.9
20260506200832 45 311 7.0 12.0 0.00 0.00 0.00 47 1015.8
20260506200327 45 293 7.0 14.0 0.00 0.00 0.00 46 1015.8
20260506195821 45 304 9.0 17.0 0.00 0.00 0.00 48 1015.8
20260506195314 45 306 10.0 17.0 0.00 0.00 0.00 45 1015.8
20260506194808 45 306 9.0 17.0 0.00 0.00 0.00 46 1015.9
20260506194747 46 292 8.0 12.0 0.00 0.00 0.00 45 1015.8
20260506193757 45 290 9.0 16.0 0.00 0.00 0.00 47 1015.8
20260506193251 45 302 8.0 16.0 0.00 0.00 0.00 45 1015.8
20260506192745 46 306 7.0 12.0 0.00 0.00 0.00 45 1015.8
20260506192239 45 249 8.0 15.0 0.00 0.00 0.00 46 1015.7
20260506191733 45 263 7.0 15.0 0.00 0.00 0.00 46 1015.7
20260506191227 45 314 8.0 17.0 0.00 0.00 0.00 46 1015.8
20260506190722 45 319 8.0 17.0 0.00 0.00 0.00 47 1015.8
20260506190215 45 304 9.0 13.0 0.00 0.00 0.00 46 1015.8
20260506185709 45 300 9.0 13.0 0.00 0.00 0.00 47 1015.8
20260506185202 45 313 8.0 13.0 0.00 0.00 0.00 47 1015.7
20260506184657 45 288 8.0 12.0 0.00 0.00 0.00 47 1015.7
20260506184151 45 286 7.0 13.0 0.00 0.00 0.00 47 1015.6
20260506183645 45 286 6.0 13.0 0.00 0.00 0.00 46 1015.6
20260506183138 46 251 6.0 15.0 0.00 0.00 0.00 48 1015.5
20260506182632 46 293 7.0 15.0 0.00 0.00 0.00 49 1015.5
20260506182127 45 321 8.0 14.0 0.00 0.00 0.00 45 1015.5
20260506181620 45 278 8.0 13.0 0.00 0.00 0.00 47 1015.5
20260506181115 45 306 6.0 13.0 0.00 0.00 0.00 47 1015.4
20260506180835 46 325 5.0 13.0 0.00 0.00 0.00 46 1015.4
20260506175820 46 29 6.0 11.0 0.00 0.00 0.00 49 1015.6
20260506175308 46 289 6.0 11.0 0.00 0.00 0.00 49 1015.5
20260506174545 46 302 5.0 9.0 0.00 0.00 0.00 49 1015.6
20260506174038 45 302 5.0 12.0 0.00 0.00 0.00 49 1015.6
20260506173532 46 321 6.0 13.0 0.00 0.00 0.00 47 1015.5
20260506173027 46 308 6.0 13.0 0.00 0.00 0.00 49 1015.6
20260506172521 46 318 6.0 10.0 0.00 0.00 0.00 48 1015.6
20260506172244 46 305 6.0 10.0 0.00 0.00 0.00 46 1015.6
20260506171508 46 272 6.0 10.0 0.00 0.00 0.00 47 1015.8
20260506171002 45 314 6.0 11.0 0.00 0.00 0.00 47 1015.8
20260506170717 45 294 6.0 15.0 0.00 0.00 0.00 47 1015.7
20260506165950 46 292 5.0 16.0 0.00 0.00 0.00 49 1015.9
20260506165459 46 306 5.0 11.0 0.00 0.00 0.00 47 1015.8
20260506164938 46 275 5.0 11.0 0.00 0.00 0.00 48 1015.8
20260506164432 46 288 6.0 9.0 0.00 0.00 0.00 47 1015.7